Regional Weather Roundup
Issued by NWS

Home | Current Version | Previous Version | Text Only | Print | Product List | Glossary Off
Versions: 1 2 3 4 5 6 7 8 9 10 11 12 13 14 15 16 17 18 19 20 21 22 23 24 25 26 27 28 29 30 31 32 33 34 35 36 37 38 39 40 41 42 43 44 45 46 47 48 49 50

000
ASUS43 KDTX 051401
RWRMI
MICHIGAN HOURLY REGIONAL WEATHER ROUNDUP
NATIONAL WEATHER SERVICE DETROIT/PONTIAC MI
1000 AM EDT THU MAY 05 2016

NOTE: "FAIR" INDICATES FEW OR NO CLOUDS BELOW 12,000 FEET WITH NO
SIGNIFICANT WEATHER AND/OR OBSTRUCTION TO VISIBILITY.

MIZ047>049-052>055-059>063-066>070-074>076-081>083-051500-
SOUTHEAST LOWER MICHIGAN

CITY           SKY/WX    TMP DP  RH WIND       PRES   REMARKS
ADRIAN         SUNNY     55  45  68 NE17      29.85R
ALMA           SUNNY     51  46  82 N9G16     29.92R
ANN ARBOR      SUNNY     56  45  66 NE12      29.85R
BAD AXE        MOSUNNY   49  45  86 N13G20    29.91R
CARO           CLOUDY    48  45  88 N9        29.90S
DETROIT CITY   SUNNY     56  44  64 N12       29.85R
DETROIT        MOSUNNY   57  45  64 N12       29.85R
FLINT          MOSUNNY   54  44  69 N8        29.90R
GROSSE ILE     SUNNY     55  46  71 N10       29.83R
HILLSDALE      SUNNY     50  43  74 N12       29.87R
HOWELL         MOSUNNY   49  45  86 NW7       29.88R

CITY           SKY/WX    TMP DP  RH WIND       PRES   REMARKS
JACKSON        MOSUNNY   51  44  77 N10       29.88R
LAMBERTVILLE   SUNNY     56  45  67 NE7       29.84R
LANSING        PTSUNNY   50  44  80 N9        29.91R
LAPEER         FAIR      52  44  74 N7        29.88R
MASON          CLOUDY    49  45  86 N7        29.89S
MONROE         SUNNY     55  46  69 N9G17     29.83R
MT. CLEMENS    SUNNY     55  46  71 N13       29.84R
PONTIAC        MOSUNNY   53  44  71 N8        29.86R
PORT HOPE        N/A     46  42  86 N6        29.90R
PORT HURON     SUNNY     55  45  67 N12       29.86R
TRI CITIES     MOSUNNY   54  45  71 NE14      29.92R
MIDLAND        FAIR      52  44  73 N5        29.92R
TROY           SUNNY     57  47  69 N8G17     29.87R
SAGINAW HB     CLOUDY    48  45  87 N16       29.91R
$$
MIZ043>046-050>051-056>058-064>065-071>073-077>080-051500-
SOUTHWEST LOWER MICHIGAN

CITY           SKY/WX    TMP DP  RH WIND       PRES   REMARKS
BATTLE CREEK   MOSUNNY   50  44  80 N9        29.91R
BENTON HARBOR  CLOUDY    45  40  82 VRB7      29.95R
BIG RAPIDS     PTSUNNY   46  42  85 N8        29.95R
COLDWATER      MOSUNNY   49  45  85 N13       29.89R
FREMONT        FAIR      46  41  82 N8        29.96R
HOLLAND        SUNNY    N/A N/A N/A NE6       29.96R
GRAND RAPIDS   MOSUNNY   53  44  71 N7        29.94R
IONIA          FAIR      50  43  75 N6        29.92R
KALAMAZOO      MOSUNNY   50  43  77 N12       29.92R
LUDINGTON      SUNNY     49  41  74 N6        29.99R
MARSHALL       PTSUNNY   49  44  82 N6        29.89S
MOUNT PLEASANT   N/A     51  46  81 NW7       29.93R
MUSKEGON       SUNNY     50  39  66 N8        29.97R
$$
MIZ016>042-051500-
NORTHERN LOWER MICHIGAN

CITY           SKY/WX    TMP DP  RH WIND       PRES   REMARKS
ALPENA         SUNNY     53  44  71 N9        29.96R
BEAVER ISLAND  SUNNY     44  38  80 NW7       30.00S
BELLAIRE       MOSUNNY   47  40  77 CALM      30.00R
CADILLAC       CLOUDY    42  40  93 N6        29.96R
CHARLEVOIX     MOSUNNY   42  40  93 N6        30.02S
FRANKFORT      SUNNY     46  40  78 CALM      30.00R
GAYLORD        CLOUDY    45  41  86 VRB5      29.97R
GRAYLING       CLOUDY    47  43  88 N7        29.97R
HARBOR SPRINGS SUNNY     44  40  86 SW5       29.99R
HOUGHTON LAKE  CLOUDY    45  42  89 N9        29.96S
MANISTEE       SUNNY     46  37  71 N7        30.00R
OSCODA         SUNNY     53  44  70 N10       29.93R
PELLSTON       CLOUDY    45  41  86 VRB3      29.99S
ROGERS CITY    SUNNY     46  42  84 NW9       29.99R
TRAVERSE CITY  MOSUNNY   46  39  76 NE6       29.99S
$$
MIZ007>008-015-051500-
EASTERN UPPER MICHIGAN

CITY           SKY/WX    TMP DP  RH WIND       PRES   REMARKS
KINROSS          N/A     46  43  87 N7        29.98R
MACKINAC ISLAN MOSUNNY   47  43  88 N3        29.98R
NEWBERRY       SUNNY     46  38  74 N7        29.99S
S. S. MARIE    MOSUNNY   48  41  76 CALM      29.97R
MUNISING         N/A     41  34  76 N12       30.03R
$$
MIZ004>006-011>014-085-051500-
CENTRAL UPPER MICHIGAN

CITY           SKY/WX    TMP DP  RH WIND       PRES   REMARKS
MANISTIQUE     SUNNY     45  35  69 N10       30.01R
ESCANABA       SUNNY     43  36  75 N6        30.03S
MENOMINEE      SUNNY     46  34  61 CALM      30.05S
SAWYER-GWINN   SUNNY     41  34  75 N7        30.04R
$$
MIZ001>003-009>011-084-051500-
WESTERN UPPER MICHIGAN

CITY           SKY/WX    TMP DP  RH WIND       PRES   REMARKS
IRON MOUNTAIN  SUNNY     44  33  65 W3        30.02S
HOUGHTON       SUNNY     46  34  62 W7        30.01S
COPPER HARBOR    N/A     40  34  79 CALM      30.01S
IRONWOOD         N/A    N/A N/A N/A MISG        N/A
$$

ABBREVIATIONS USED IN REMARKS
   TC - TEMPERATURE IN CELSIUS
  WCI - WIND CHILL INDEX
   HX - HEAT INDEX
  VSB - VISIBILITY





USA.gov is the U.S. government's official web portal to all federal, state and local government web resources and services.